Regional Weather Roundup
Issued by NWS

Home | Current Version | Previous Version | Text Only | Print | Product List | Glossary Off
Versions: 1 2 3 4 5 6 7 8 9 10 11 12 13 14 15 16 17 18 19 20 21 22 23 24 25 26 27 28 29 30 31 32 33 34 35 36 37 38 39 40 41 42 43 44 45 46 47 48 49 50

000
ASUS43 KLOT 210504
RWRIL

ILLINOIS REGIONAL WEATHER ROUNDUP
NATIONAL WEATHER SERVICE CHICAGO/ROMEOVILLE IL
1200 AM CDT SAT OCT 21 2017

NOTE: "FAIR" INDICATES FEW OR NO CLOUDS BELOW 12,000 FEET WITH NO
SIGNIFICANT WEATHER AND/OR OBSTRUCTIONS TO VISIBILITY.

* THESE STATIONS ARE NOT UNDER NWS QUALITY CONTROL. THEY ALSO MAY NOT
  REPORT WEATHER SUCH AS PRECIPITATION OR FOG.

ILZ001-002-007-009-015-016-024-210600-
NORTHWEST ILLINOIS

CITY           SKY/WX    TMP DP  RH WIND       PRES   REMARKS
MOLINE         CLOUDY    68  49  50 S15G25    29.96S
STERLING*      MOCLDY    64  49  57 SE6         N/A
SAVANNA*       PTCLDY    65  48  55 S12G17    29.98S
$$

ILZ003-004-008-010-011-017-018-210600-
NORTH CENTRAL ILLINOIS

CITY           SKY/WX    TMP DP  RH WIND       PRES   REMARKS
ROCKFORD       CLOUDY    61  47  59 S9        30.03S
FREEPORT*      CLOUDY    62  46  54 S14G20    30.01S
ROCHELLE*      CLOUDY    58  48  70 SE5       30.04R
DE KALB*       CLOUDY    60  49  65 S10       30.05S
PERU*          CLOUDY    64  48  57 S10G18    30.04S
$$

ILZ005-006-012>014-019>023-210600-
NORTHEAST ILLINOIS

CITY           SKY/WX    TMP DP  RH WIND       PRES   REMARKS
CHICAGO-OHARE  CLOUDY    67  48  50 S16       30.05S
CHICAGO-MIDWAY CLOUDY    66  49  54 S12       30.06S
AURORA         MOCLDY    61  49  64 SE8       30.04F
LANSING*       PTCLDY    60  51  72 S8        30.09S
JOLIET*        PTCLDY    64  50  60 S8        30.06F
WAUKEGAN       CLOUDY    67  49  52 S15       30.03S
DUPAGE AIRPORT CLOUDY    62  50  64 S12       30.04F
KANKAKEE*      CLOUDY    61  49  64 S10       30.09S
WHEELING       CLOUDY    67  49  52 S10       30.06S
MORRIS*        MOCLDY    61  49  64 S10       30.04F
NORTHERLY ISL    N/A     68  46  45 S15         N/A
$$

LMZ740>746-210600-
SOUTHERN LAKE MICHIGAN

STATION/POSITION SKY/WX   TEMP    WIND        PRES    VSBY  WAVE
                          AIR SEA DIR/SP/G                  HT/PER
                          (F)     (DEG/KT/KT) (MB)    (MI)  (FT/S)
SOUTHERN BUOY              64 61  170/ 16/ 17 1017.6          2/ 3
WILMETTE HARBOR            66 59  190/ 12/ 17   N/A           2/ 3
HARRISON CRIB              68     190/ 20/ 21   N/A
BURNHAM HARBOR             67     190/ 16/ 16   N/A
CALUMET HARBOR             66     180/ 12/ 14 1017.6S
BURNS HARBOR               65     190/ 12/ 16 1019.3R
MICHIGAN CITY              64     170/ 11/ 14   N/A
MICHIGAN CITY 6N           62 58  190/ 10/ 14   N/A           1/ 2
ST. JOSEPH                 63 59  200/  8/ 10 1019.0R         1
$$

ILZ025>027-034>036-040-047-049-050-058-095>099-210600-
WEST-CENTRAL ILLINOIS

CITY           SKY/WX    TMP DP  RH WIND       PRES   REMARKS
QUINCY         PTCLDY    67  50  54 S14       29.98F
GALESBURG*     PTCLDY    70  59  66 SE9       30.01S
MACOMB*        CLOUDY    65  52  63 S13G20    30.02S
JACKSONVILLE*  CLOUDY    65  50  58 S15       30.03S
PITTSFIELD*    CLOUDY    65  52  62 SE14      30.01F
$$

ILZ028>032-037-038-041>044-048-051>054-059>061-210600-
CENTRAL ILLINOIS

CITY           SKY/WX    TMP DP  RH WIND       PRES   REMARKS
PONTIAC        CLOUDY    62  51  65 S12       30.07R
BLOOMINGTON    CLOUDY    61  49  64 S13       30.07S
DECATUR        CLOUDY    62  47  57 S12       30.08F
PEORIA         CLOUDY    63  51  65 S9        30.03F
LACON*         CLOUDY    66  50  56 S14G20    30.02F
LINCOLN*       CLOUDY    63  52  67 S8        30.05F
SPRINGFIELD    CLOUDY    65  53  65 S10       30.05F
TAYLORVILLE    CLOUDY    62  51  65 S12G17    30.07F
$$

ILZ033-039-045-046-055>057-062-063-210600-
EAST-CENTRAL ILLINOIS

CITY           SKY/WX    TMP DP  RH WIND       PRES   REMARKS
CHAMPAIGN      MOCLDY    61  49  64 S10       30.11R
DANVILLE*      CLOUDY    63  49  60 S12       30.10R
RANTOUL*       CLOUDY    58  51  78 S6        30.11S
MATTOON        CLOUDY    61  51  70 S7        30.10S
PARIS*         PTCLDY    55  49  80 S8        30.13S
$$

ILZ079-100>102-210600-
SOUTHWEST ILLINOIS

CITY           SKY/WX    TMP DP  RH WIND       PRES   REMARKS
ALTON          PTCLDY    60  54  78 CALM      30.06F
CAHOKIA*       CLOUDY    64  51  62 SE7       30.04F
SPARTA*        CLOUDY    61  51  70 SE9       30.08F
$$

ILZ064>066-069>071-074>076-080>082-084>086-088>090-092>094-210600-
SOUTH-CENTRAL ILLINOIS

CITY           SKY/WX    TMP DP  RH WIND       PRES   REMARKS
CARBONDALE     CLOUDY    58  53  84 SE6       30.10F
CAIRO*         CLOUDY    54  51  92 CALM      30.12F
EFFINGHAM*     CLOUDY    60  50  69 E5        30.12S
MARION         MOCLDY    62  52  68 S6        30.12S
MT. VERNON     CLOUDY    60  51  72 S5        30.11F
CENTRALIA*     CLOUDY    64  51  62 SE8       30.08F
SALEM*         CLOUDY    65  48  54 S6        30.10S
METROPOLIS*    CLOUDY    61  52  72 CALM      30.13S
$$

ILZ067-068-072-073-078-083-087-091-210600-
SOUTHEAST ILLINOIS

CITY           SKY/WX    TMP DP  RH WIND       PRES   REMARKS
LAWRENCEVILLE  PTCLDY    56  50  80 SE6       30.13S
FLORA*         PTCLDY    57  51  81 SE6       30.12S
FAIRFIELD*     CLOUDY    60  51  72 S3        30.11F
HARRISBURG*    MOCLDY    56  51  85 E3        30.13R
ROBINSON*      MOCLDY    53  48  83 CALM      30.14S
CARMI*         MOCLDY    55  51  86 CALM      30.12S
$$

ABBREVIATIONS USED IN REMARKS
   TC - TEMPERATURE IN CELSIUS
  WCI - WIND CHILL INDEX
   HX - HEAT INDEX
  VSB - VISIBILITY
$$





USA.gov is the U.S. government's official web portal to all federal, state and local government web resources and services.